Regional Weather Roundup
Issued by NWS

Home | Current Version | Previous Version | Graphics & Text | Print | Product List | Glossary On
Versions: 1 2 3 4 5 6 7 8 9 10 11 12 13 14 15 16 17 18 19 20 21 22 23 24 25 26 27 28
000
ASUS45 KSLC 201910
RWRUT

UTAH REGIONAL WEATHER ROUNDUP
NATIONAL WEATHER SERVICE SALT LAKE CITY UT
1200 PM MST MON NOV 20 2017

UTZ001>011-023>025-202000-

NORTHERN UTAH

CITY           SKY/WX    TMP DP  RH WIND       PRES   REMARKS
BRIGHAM CITY   CLOUDY    39  28  66 CALM      30.12S
DUGWAY         CLOUDY    43  28  55 CALM      30.09F
HILL AFB       CLOUDY    43  29  58 W7        30.10R
LOGAN          CLOUDY    38  29  70 CALM      30.10S
OGDEN          CLOUDY    41  31  67 W7        30.11R
SALT LAKE CITY CLOUDY    45  31  58 NW5       30.10R
TOOELE VALLEY  CLOUDY    41  34  75 NW10      30.12R
WENDOVER       CLOUDY    38  26  62 S3        30.13S
HEBER CITY       N/A     43  25  49 CALM      30.07F
WEST JORDAN    CLOUDY    42  32  66 CALM      30.10R

$$

UTZ011>015-024>027-202000-

CENTRAL/NORTHEAST UTAH

CITY           SKY/WX    TMP DP  RH WIND       PRES   REMARKS
PROVO AIRPORT  CLOUDY    50  22  33 E5        30.09F
MOAB/CANYONLAN PTSUNNY   42  14  32 CALM      30.17F
DELTA          CLOUDY    46  14  27 S3        30.10S
PRICE          PTSUNNY   39   9  29 VRB3      30.18F
RICHFIELD      SUNNY     45  23  42 N3        30.12F
ROOSEVELT      CLOUDY    37  14  38 SE3       30.15F
VERNAL         CLOUDY    37  14  38 SE5       30.13F WCI  33

$$

UTZ013>016-019>022-027-202000-

SOUTHERN UTAH

CITY           SKY/WX    TMP DP  RH WIND       PRES   REMARKS
BRYCE CANYON   MOSUNNY   48   4  16 SE10      30.18F
CEDAR CITY     PTSUNNY   57   5  12 SW14      30.12F
MILFORD        CLOUDY    56   6  13 S25       30.09S
ST GEORGE      MOCLDY    53   8  16 CALM      30.15F
HANKSVILLE     PTSUNNY   41  10  28 CALM      30.22F
KANAB          SUNNY     57   5  12 S8        30.19F
BLANDING         N/A     41   8  26 CALM      30.26F

$$

REGIONAL REPORTS     COLORADO/ARIZONA

CITY           SKY/WX    TMP DP  RH WIND       PRES   REMARKS
CRAIG, CO      CLOUDY    37  21  52 VRB5      30.10F WCI  33
GRAND JUNCTION CLOUDY    41  18  39 CALM      30.19F
RIFLE, CO      CLOUDY    34  18  52 CALM      30.18F
MONTROSE, CO   CLOUDY    39  19  44 CALM      30.19F
CORTEZ, CO     CLOUDY    48   5  17 CALM      30.18F
COLORADO CITY    N/A     61  10  13 SE3       30.19S
PAGE, AZ       SUNNY     46  11  24 N6        30.18F
GRAND CANYON   SUNNY     56   7  14 SW9       30.21R
KINGMAN, AZ    MOSUNNY   67  21  17 SW13      30.11S
FLAGSTAFF, AZ  SUNNY     57   9  14 SW12      30.20F

$$

REGIONAL REPORTS    NEVADA/IDAHO/WYOMING

CITY           SKY/WX    TMP DP  RH WIND       PRES   REMARKS
LAS VEGAS, NV  PTSUNNY   60  10  14 NE3       30.12S
ELY, NY        CLOUDY    52   1  12 NE3       30.15S
ELKO, NV       CLOUDY    40  34  79 SE5       30.13R
POCATELLO, ID  CLOUDY    44  27  51 SW6       30.06F
BURLEY, ID     LGT RAIN  44  38  79 S16       30.03F
FORT BRIDGER,  MOCLDY    40  26  56 W14G21    30.10F WCI  33
EVANSTON, WY   CLOUDY    39  23  52 W8        30.09F WCI  33
ROCK SPRINGS,  CLOUDY    37  20  50 W23       30.04F WCI  26
KEMMERER, WY   CLOUDY    37  21  52 SW5       30.08F WCI  34

$$




USA.gov is the U.S. government's official web portal to all federal, state and local government web resources and services.